TimeMDT,TemperatureF,Dew PointF,Humidity,Sea Level PressureIn,VisibilityMPH,Wind Direction,Wind SpeedMPH,Gust SpeedMPH,PrecipitationIn,Events,Conditions,WindDirDegrees,DateUTC
12:51 AM,63.0,19.0,18,29.52,10.0,West,9.2,-,N/A,,Clear,260,2013-04-08 06:51:00
1:51 AM,61.0,19.0,20,29.51,10.0,WSW,5.8,-,N/A,,Clear,250,2013-04-08 07:51:00
2:51 AM,64.9,19.9,18,29.47,10.0,West,13.8,-,N/A,,Clear,280,2013-04-08 08:51:00
3:51 AM,55.9,24.1,29,29.48,10.0,ESE,4.6,-,N/A,,Clear,110,2013-04-08 09:51:00
4:51 AM,54.0,19.9,26,29.50,10.0,SE,4.6,-,N/A,,Clear,140,2013-04-08 10:51:00
5:51 AM,55.0,21.0,27,29.52,10.0,SSE,3.5,-,N/A,,Clear,160,2013-04-08 11:51:00
6:51 AM,57.0,19.9,24,29.52,10.0,Calm,Calm,-,N/A,,Clear,0,2013-04-08 12:51:00
7:51 AM,63.0,21.9,21,29.52,10.0,WSW,10.4,-,N/A,,Clear,250,2013-04-08 13:51:00
8:51 AM,70.0,23.0,17,29.52,10.0,SW,9.2,-,N/A,,Clear,230,2013-04-08 14:51:00
9:51 AM,75.9,24.1,15,29.50,10.0,SW,18.4,24.2,N/A,,Clear,230,2013-04-08 15:51:00
10:51 AM,79.0,24.1,13,29.50,10.0,SSW,19.6,27.6,N/A,,Clear,210,2013-04-08 16:51:00
11:51 AM,81.0,24.1,12,29.45,10.0,SW,13.8,29.9,N/A,,Clear,230,2013-04-08 17:51:00
12:41 PM,84.2,24.8,11,29.59,10.0,South,25.3,34.5,N/A,,Clear,180,2013-04-08 18:41:00
12:51 PM,84.0,26.1,12,29.39,10.0,SSW,23.0,33.4,N/A,,Clear,200,2013-04-08 18:51:00
1:51 PM,84.9,23.0,10,29.36,7.0,SSW,33.4,41.4,N/A,,Clear,210,2013-04-08 19:51:00
2:16 PM,84.2,19.4,9,29.53,6.0,South,31.1,47.2,N/A,,Haze,190,2013-04-08 20:16:00
2:51 PM,86.0,18.0,8,29.31,4.0,SSW,36.8,47.2,N/A,,Widespread Dust,200,2013-04-08 20:51:00
3:51 PM,84.9,18.0,8,29.33,10.0,SSW,32.2,43.7,N/A,,Clear,210,2013-04-08 21:51:00
4:51 PM,86.0,16.0,7,29.29,8.0,SSW,36.8,46.0,N/A,,Clear,210,2013-04-08 22:51:00
5:51 PM,84.0,16.0,8,29.28,10.0,SW,32.2,42.6,N/A,,Clear,220,2013-04-08 23:51:00
6:51 PM,82.0,16.0,8,29.29,9.0,SSW,20.7,28.8,N/A,,Clear,200,2013-04-09 00:51:00
7:51 PM,77.0,16.0,10,29.28,9.0,SSW,15.0,-,N/A,,Partly Cloudy,210,2013-04-09 01:51:00
8:51 PM,77.0,12.0,8,29.28,4.0,SSW,17.3,-,N/A,,Haze,200,2013-04-09 02:51:00
9:51 PM,73.0,12.0,10,29.29,5.0,SSW,11.5,-,N/A,,Haze,200,2013-04-09 03:51:00
11:51 PM,64.0,14.0,14,29.28,5.0,SW,9.2,-,N/A,,Haze,230,2013-04-09 05:51:00